NINGXIA-1 2 (44780 NORAD) Tracking and Keplerian Element Data

This shows tracking and keplerian element data for the satellite.

Feedback or suggestion? Click here.




ElementValue
Catalog44780
NameNINGXIA-1 2
Epoch Orbit312
Epoch Day339.51140577
Epoch Year2019
RAAN36.1964
Inclination45.014
Eccentricity0.0009346
Argument of Perigee349.5506
Mean Anonmoly10.5117
Mean Motion14.00582334
Decay Rate-1.29E-06
L11 44780U 19076B 19339.51140577 -.00000129 00000-0 00000+0 0 9993
L22 44780 45.0140 36.1964 0009346 349.5506 10.5117 14.00582334 3123

Live tracking and technical data element details for NINGXIA-1 2 (NORAD 44780). NINGXIA-1 2 can be tracked NOW for your location showing map with azimuth and elevation plus other details from your city location.

Track the satellite on the map from your city or location and see movement details for azimuth, elevation, latitude, longitude, range, height, and movement on the map or in text.







IsCatalogInMostPopularTable: catalog: 44780, numindb: 2
Update: records affected: 1



GetName: 44780 NINGXIA-1 2

Hit Count: updated at: Thu, 05 Dec 2019 18:12:09 GMT